[[{"header":{"parameterUnit":"m.s-1","parameterCategory":1,"la1":30.2991,"la2":30.254,"lo1":-89.0895,"lo2":-89.0444,"dy":0.0017,"dx":0.0017,"nx":28,"ny":28,"refTime":"2024-12-31T03:00:00:Z","depth":0,"parameterNumber":2,"parameterNumberName":"U-component_of_WINDS"},"data":[0,0,0,0,0,0,0,0,0,0,0,0,0,0,0,0,0,0,0,0,0,0,0,0,0,0,0,0,0,0,0,0,0,0,0,0,0,0,0,0,0,0,0,0,0,0,0,0,0,0,0,0,0,0,0,0,0,0,1.083,1.0831,0,1.0919,1.092,1.0921,1.0916,1.0914,1.0913,1.0912,1.1007,1.101,1.1014,0,0,0,0,0,0,0,0,0,0,0,0,0,1.0658,1.0661,1.083,1.0831,1.0832,1.0919,1.092,1.0921,1.0916,1.0914,1.0913,1.0911,1.1005,1.101,1.1014,0,0,0,0,0,0,0,0,0,0,0,0,0,1.0739,1.0662,1.083,1.084,1.0841,1.0919,1.092,1.0922,1.0916,1.0914,1.0912,1.0911,1.1004,1.1009,1.1015,1.1089,0,0,1.1032,1.1034,0,0,0,0,0,0,0,0,1.0734,1.0745,1.0837,1.0839,1.0841,1.0904,1.0894,1.0978,1.0917,1.0888,1.0912,1.091,1.0974,1.0982,1.1003,1.1093,1.1097,1.1033,1.1036,1.1038,1.104,0,0,0,0,0,0,0,1.0728,1.0741,1.0865,1.0838,1.0841,1.0841,1.085,1.091,1.0941,1.089,1.089,1.0901,1.0975,1.0998,1.1006,1.1099,1.1032,1.1037,1.1041,1.1043,1.1255,1.1258,0,0,0,0,0,0,1.072,1.0736,1.0862,1.0868,1.0782,1.0846,1.0856,1.0886,1.094,1.0947,1.0902,1.09,1.0989,1.0999,1.1009,1.11,1.1038,1.1044,1.1047,1.1253,1.1256,1.1258,0,0,0,0,0,0,1.0716,1.0731,1.0859,1.0802,1.0818,1.0851,1.0884,1.0889,1.0912,1.0949,1.0955,1.092,1.0988,1.1001,1.1069,1.1103,1.1046,1.1051,1.125,1.1254,1.1257,1.1283,0,0,0,0,0,0,1.0712,1.073,1.0758,1.0803,1.0821,1.0916,1.0886,1.0892,1.0921,1.0919,1.0967,1.0974,1.0988,1.1061,1.1075,1.111,1.1056,1.1248,1.1252,1.1256,1.1279,1.1287,1.1293,0,0,0,0,0,1.0705,1.0762,1.0759,1.0774,1.0856,1.0918,1.0929,1.0943,1.0924,1.0952,1.0977,1.0972,1.1097,1.1068,1.1083,1.1121,1.1245,1.1251,1.1256,1.1276,1.1285,1.1293,0,0,0,0,0,0,1.0721,1.0768,1.0765,1.0838,1.0874,1.0917,1.0954,1.0952,1.0996,1.0992,1.1009,1.102,1.1089,1.1112,1.1078,1.1196,1.1169,1.1177,1.1179,1.1188,1.1195,1.1189,1.106,0,0,0,0,0,1.0732,1.0778,1.0817,1.0877,1.0895,1.0921,1.0949,1.0957,1.0995,1.1011,1.104,1.1079,1.1127,1.1159,1.1205,1.1282,1.1293,1.1316,1.1323,1.1328,1.1336,1.138,1.1391,1.1275,1.1275,1.1275,0,0,1.0757,1.0788,1.0816,1.0881,1.091,1.0958,1.0934,1.0986,1.1022,1.1019,1.1085,1.1108,1.1153,1.1226,1.126,1.1247,1.137,1.1335,1.1339,1.1344,1.1387,1.1397,1.1407,1.1279,1.1278,1.1277,0,0,1.0827,1.0854,1.0908,1.0938,1.0982,1.0999,1.1012,1.1056,1.1071,1.1137,1.1136,1.118,1.1262,1.1294,1.1322,1.1404,1.1402,1.1419,1.1457,1.1499,1.1508,1.1517,1.1548,1.1559,1.1426,1.1426,1.1426,0,1.0852,1.0924,1.0936,1.0989,1.1018,1.1016,1.1072,1.11,1.1157,1.1178,1.1163,1.1267,1.1296,1.1378,1.1398,1.142,1.1436,1.1414,1.1506,1.1514,1.1522,1.1552,1.1564,1.1428,1.1428,1.1428,1.1428,0,1.0954,1.1004,1.1042,1.1097,1.113,1.1184,1.1205,1.1238,1.1243,1.1262,1.1331,1.1366,1.142,1.144,1.1445,1.1523,1.1514,1.1502,1.1475,1.1535,1.1563,1.1575,1.1431,1.143,1.143,1.1429,0,0,1.1036,1.1098,1.1112,1.1137,1.1186,1.1225,1.1279,1.1331,1.136,1.1399,1.1446,1.1516,1.1506,1.1536,1.1546,1.1583,1.1648,1.1567,1.1568,1.1582,1.1738,1.1747,1.176,1.1646,1.1649,1.165,1.1735,0,1.1113,1.1208,1.1221,1.1305,1.1352,1.1352,1.1399,1.1435,1.1455,1.1498,1.152,1.157,1.1552,1.157,1.1607,1.1632,1.168,1.1626,1.1692,1.1694,1.1682,1.1775,1.1785,1.1863,1.1746,1.1747,1.1749,0,1.1214,1.1256,1.1345,1.1389,1.1409,1.1451,1.1501,1.1542,1.1583,1.1595,1.1629,1.1634,1.1692,1.1661,1.1742,1.1705,1.1733,1.1749,1.1753,1.1761,1.1726,1.1787,1.1888,1.19,1.1766,1.1765,1.1764,0,1.1267,1.1346,1.141,1.1432,1.1484,1.1514,1.1537,1.1576,1.1607,1.165,1.1671,1.1721,1.1748,1.1788,1.1806,1.1782,1.1886,1.1857,1.1899,1.1899,1.1922,1.1921,1.203,1.1937,1.1937,1.1937,1.1937,0,1.1352,1.1407,1.1435,1.1475,1.1537,1.1552,1.1613,1.1636,1.167,1.1715,1.1718,1.176,1.1781,1.1827,1.1842,1.1908,1.192,1.1932,1.1936,1.1933,1.1932,1.1952,1.1948,1.194,1.1939,1.1939,1.1938,0,1.1422,1.1443,1.1513,1.1556,1.1569,1.1613,1.165,1.169,1.1709,1.1765,1.178,1.181,1.1864,1.1886,1.1953,1.1963,1.2039,1.2038,1.2025,1.2027,1.2068,1.2064,1.2196,1.2215,1.2108,1.2109,1.211,0,1.1475,1.1518,1.1566,1.1596,1.162,1.1668,1.1699,1.1716,1.1749,1.1799,1.1833,1.1887,1.1931,1.2018,1.2047,1.2098,1.2099,1.2142,1.2107,1.2103,1.2102,1.21,1.2105,1.2149,1.215,1.2151,1.2151,0,1.1568,1.1577,1.1621,1.1671,1.1708,1.1748,1.1786,1.1811,1.1834,1.1871,1.1926,1.196,1.2028,1.2082,1.2135,1.2161,1.2161,1.2162,1.2175,1.2173,1.2164,1.2171,1.2044,1.2159,1.2158,1.2158,1.2157,1.2157,1.1633,1.1671,1.1711,1.1761,1.1792,1.1828,1.1868,1.1891,1.1937,1.1994,1.2001,1.2061,1.2102,1.2173,1.22,1.2248,1.2237,1.2255,1.226,1.2265,1.2269,1.2155,1.2258,1.2258,1.2257,1.2257,1.2257,0,1.1727,1.1753,1.1799,1.1853,1.1893,1.1888,1.1931,1.1965,1.2017,1.2055,1.2099,1.2163,1.2216,1.2249,1.2302,1.2334,1.2336,1.2348,1.2347,1.2353,1.2274,1.2259,1.2346,1.2346,1.2346,1.2346,1.2346,1.2346,1.1781,1.1846,1.1859,1.194,1.1965,1.2023,1.2048,1.2082,1.2113,1.2184,1.2228,1.2249,1.2285,1.2342,1.2391,1.2399,1.2419,1.2433,1.2441,1.2367,1.2358,1.2349,1.2335,1.2436,1.2437,1.2515,1.2516,1.2516]},{"header":{"parameterUnit":"m.s-1","parameterCategory":1,"la1":30.2991,"la2":30.254,"lo1":-89.0895,"lo2":-89.0444,"dy":0.0017,"dx":0.0017,"nx":28,"ny":28,"refTime":"2024-12-31T03:00:00:Z","depth":0,"parameterNumber":3,"parameterNumberName":"V-component_of_WINDS"},"data":[0,0,0,0,0,0,0,0,0,0,0,0,0,0,0,0,0,0,0,0,0,0,0,0,0,0,0,0,0,0,0,0,0,0,0,0,0,0,0,0,0,0,0,0,0,0,0,0,0,0,0,0,0,0,0,0,0,0,3.9835,3.9837,0,3.996,3.9961,3.9963,3.9943,3.9941,3.9939,3.9937,4.0062,4.0067,4.0073,0,0,0,0,0,0,0,0,0,0,0,0,0,3.9578,3.9583,3.9835,3.9837,3.9838,3.996,3.9961,3.9963,3.9944,3.9941,3.9939,3.9936,4.0061,4.0067,4.0073,0,0,0,0,0,0,0,0,0,0,0,0,0,3.9695,3.9584,3.9835,3.9843,3.9845,3.9959,3.9961,3.9964,3.9944,3.9941,3.9938,3.9935,4.0058,4.0066,4.0074,4.0187,0,0,4.0098,4.0102,0,0,0,0,0,0,0,0,3.9688,3.9704,3.9841,3.9843,3.9845,3.9933,3.9916,4.0038,3.9945,3.9907,3.9937,3.9933,4.0022,4.0032,4.0063,4.0193,4.0198,4.0099,4.0104,4.0107,4.011,0,0,0,0,0,0,0,3.968,3.9699,3.9884,3.9843,3.9846,3.984,3.9853,3.9939,3.998,3.991,3.9909,3.9924,4.0022,4.0055,4.0065,4.02,4.0099,4.0106,4.0111,4.0114,4.0429,4.0432,0,0,0,0,0,0,3.967,3.9692,3.988,3.9888,3.9757,3.9847,3.9862,3.9908,3.9979,3.9987,3.9926,3.9922,4.0043,4.0056,4.007,4.0208,4.0107,4.0115,4.0119,4.0425,4.043,4.0434,0,0,0,0,0,0,3.9664,3.9687,3.9875,3.979,3.9814,3.9855,3.9907,3.9912,3.9945,3.9992,3.9999,3.9953,4.0041,4.0059,4.0158,4.0212,4.0118,4.0126,4.0421,4.0427,4.0432,4.0484,0,0,0,0,0,0,3.9657,3.9685,3.9729,3.9791,3.9818,3.9963,3.991,3.9917,3.9959,3.9955,4.0018,4.0026,4.004,4.0146,4.0166,4.0221,4.0132,4.0417,4.0424,4.043,4.0478,4.049,4.0501,0,0,0,0,0,3.9648,3.9738,3.9731,3.9754,3.9874,3.9966,3.9981,3.9997,3.9963,4.0008,4.0038,4.0024,4.0202,4.0157,4.0179,4.0237,4.0413,4.0422,4.0429,4.0472,4.0488,4.0501,0,0,0,0,0,0,3.968,3.9746,3.974,3.9853,3.9904,3.9963,4.0019,4.0012,4.0074,4.0067,4.0082,4.0097,4.0198,4.0227,4.0175,4.035,4.0303,4.0316,4.0328,4.0343,4.0355,4.0347,4.0138,0,0,0,0,0,3.9701,3.9771,3.9824,3.9918,3.9945,3.9977,4.0018,4.0025,4.0078,4.01,4.0137,4.0189,4.0257,4.0301,4.0366,4.0481,4.0495,4.0531,4.0543,4.0553,4.0564,4.0628,4.0645,4.046,4.046,4.046,0,0,3.9743,3.9788,3.9831,3.9926,3.9967,4.0038,3.9996,4.0073,4.0126,4.0111,4.0209,4.0237,4.0296,4.0404,4.0453,4.0431,4.0618,4.0563,4.057,4.0577,4.0638,4.0656,4.0671,4.0466,4.0465,4.0464,0,0,3.9858,3.9899,3.9983,4.0024,4.0087,4.0108,4.0128,4.0188,4.0207,4.0304,4.0295,4.0357,4.0473,4.0516,4.0553,4.0683,4.0673,4.0704,4.0767,4.0829,4.0843,4.0856,4.0904,4.0921,4.0714,4.0715,4.0715,0,3.9904,4.0012,4.0026,4.0106,4.0148,4.0137,4.0222,4.0262,4.0342,4.0371,4.0344,4.0491,4.0529,4.0647,4.0679,4.0709,4.0732,4.0698,4.084,4.0853,4.0866,4.0912,4.093,4.0718,4.0718,4.0717,4.0717,0,4.0065,4.0141,4.0201,4.028,4.0328,4.0409,4.0435,4.0482,4.0485,4.0508,4.0608,4.0653,4.0728,4.0756,4.0758,4.0875,4.086,4.0836,4.079,4.0887,4.093,4.0948,4.0723,4.0722,4.0721,4.072,0,0,4.0206,4.0292,4.0314,4.035,4.0417,4.0476,4.0556,4.063,4.067,4.0725,4.0793,4.0891,4.0871,4.0913,4.0919,4.0974,4.1076,4.0944,4.0946,4.0969,4.1208,4.1227,4.1247,4.1068,4.1072,4.1074,4.1204,0,4.0329,4.0474,4.0488,4.0617,4.0687,4.0678,4.0748,4.0796,4.082,4.0882,4.0907,4.0978,4.0944,4.097,4.1023,4.1052,4.1125,4.1043,4.1133,4.1136,4.1121,4.127,4.129,4.1411,4.1221,4.1224,4.1226,0,4.0493,4.0554,4.069,4.0749,4.0779,4.0842,4.0911,4.097,4.1025,4.1038,4.1085,4.1084,4.1167,4.1115,4.1229,4.1173,4.121,4.123,4.1235,4.1246,4.1189,4.1287,4.1449,4.1468,4.1253,4.125,4.1249,0,4.0585,4.07,4.0797,4.0828,4.0898,4.0943,4.0974,4.1025,4.1069,4.1128,4.1157,4.1224,4.1262,4.1314,4.1332,4.1292,4.1445,4.1395,4.1459,4.1459,4.1494,4.1492,4.1667,4.1514,4.1514,4.1513,4.1513,0,4.0722,4.0806,4.084,4.09,4.0993,4.1008,4.11,4.1129,4.1175,4.1239,4.1234,4.1294,4.1313,4.1377,4.139,4.1483,4.15,4.1513,4.1516,4.1515,4.1514,4.1542,4.1535,4.1518,4.1517,4.1516,4.1515,0,4.0842,4.0867,4.0973,4.103,4.1047,4.1114,4.1163,4.122,4.1242,4.1324,4.1344,4.1379,4.1453,4.1475,4.1564,4.1574,4.1684,4.1678,4.1666,4.1667,4.1731,4.1725,4.1932,4.196,4.1786,4.1788,4.1789,0,4.0929,4.0994,4.1059,4.1103,4.1136,4.1206,4.125,4.1267,4.1313,4.138,4.1429,4.1503,4.1564,4.1683,4.1716,4.1784,4.1781,4.1848,4.1791,4.1789,4.1785,4.1782,4.1789,4.186,4.1862,4.1863,4.1865,0,4.1082,4.1092,4.1157,4.1227,4.1281,4.1336,4.1389,4.1425,4.1449,4.1501,4.1578,4.1625,4.1716,4.179,4.1859,4.189,4.1882,4.1882,4.1901,4.1902,4.1893,4.1901,4.1698,4.1878,4.1877,4.1876,4.1875,4.1874,4.119,4.1248,4.1303,4.1376,4.1418,4.1468,4.1525,4.1554,4.1619,4.1696,4.1701,4.1784,4.1837,4.1929,4.1963,4.2028,4.2008,4.2035,4.2043,4.205,4.2056,4.1881,4.204,4.204,4.204,4.2039,4.2039,0,4.1345,4.138,4.1447,4.1522,4.158,4.1567,4.1625,4.1673,4.1748,4.1797,4.1857,4.1945,4.2016,4.2054,4.2125,4.217,4.2168,4.2188,4.2186,4.2194,4.2069,4.2046,4.2189,4.2189,4.2189,4.2189,4.2189,4.2189,4.1433,4.153,4.1546,4.1664,4.1697,4.1781,4.1815,4.1861,4.1901,4.2001,4.206,4.2085,4.213,4.2204,4.2268,4.2277,4.2305,4.2328,4.2335,4.2218,4.2203,4.2188,4.2167,4.2333,4.2333,4.2455,4.2456,4.2457]}]]